Weather in Mityayevo

Russia / Republic of Crimea     45°14′01″N   33°41′57″E
temp.,
°C
wind,
m/s
gust,
m/s
humid.,
%
clouds,
%
prec.,
mm/h
press.,
hPa
HPBL,
m
28 february, sun
sun2800:00+5nnw5875100 0.3 1019598
03:00+5nnw4771100 0.3 1020858
06:00+4nnw5783100 0.1 1020587
09:00+4nnw478399 0.2 1021627
12:00+5nw5770100 0.4 1023935
15:00+6nnw787197 0.7 1022937
18:00+5nw677697 0.1 1023772
21:00+2nnw489089 0.2 1024356
1 march, mon
mon100:00+2w228798 0.0 102458
03:00+2wsw238299 0.0 102478
06:000wnw228086 0.0 102424
09:00+2ese117293 0.0 102592
12:00+5nne1160100 0.0 1026922
15:00+6n225497 0.0 10261194
18:00+5nne3457100 0.0 10271123
21:00+3nne357283 0.1 1029115
2 march, tue
tue200:00+1nne23850 0.0 103040
03:000nne238730 0.0 103145
06:00−1n238926 0.0 103133
09:00+1n237613 0.0 1031202
12:00+5wnw33555 0.0 10311105
15:00+7w554931 0.0 10291228
18:00+4w566136 0.0 1027887
21:00+3wsw497640 0.0 1026333
3 march, wed
wed300:00+4sw6128311 0.0 1024440
03:00+5wsw7138115 0.0 1022431
06:00+3nw4119143 0.0 1022353
09:00+4nnw687158 0.0 10241044
12:00+7nnw795296 0.0 10251334
15:00+8n574758 0.0 10261413
18:00+7n36500 0.0 1026404
21:00+4nw12620 0.0 102822
4 march, thu
thu400:00+2sw11730 0.0 102922
03:00+1ssw23780 0.0 102825
06:00+1ssw23820 0.0 102725
09:00+4ssw35700 0.0 1026176
12:00+8sw56540 0.0 10251154
15:00+8sw67540 0.0 1023989
18:00+6sw69650 0.0 1021780
21:00+5ssw611740 0.0 1021483